Wind_Speed
74 72 71 69 69 70 70 71 71 71 71 70 69 68 66 64 63 65 67 73 85 89 83 78 77 74 72 71 73 74 75 75 74 73 71 69 68 69 70 64 62 66 67 69 70 70 70 70 70 72 73 74 77 81 85 88 91 93 94 98 102 105 112 119 124 131 137 141 148 157 164 168 167 161
74 71 69 69 69 69 69 69 71 70 69 68 68 67 66 65 64 63 63 68 81 86 81 76 74 71 71 72 72 73 74 73 73 71 68 67 66 67 67 60 59 63 66 67 68 66 66 68 68 70 72 74 77 81 84 87 90 92 94 99 104 108 114 120 125 131 137 141 149 158 164 168 166 160
74 71 69 68 69 68 68 69 70 69 67 66 67 66 65 64 64 63 63 65 75 82 79 74 72 69 68 71 72 71 72 72 71 69 66 65 64 65 65 57 56 61 63 65 66 63 64 66 67 69 71 74 78 81 84 86 90 93 94 99 107 112 118 124 127 131 136 141 149 158 165 169 167 161
76 72 68 68 68 67 67 68 69 68 66 65 65 65 63 63 64 63 64 64 70 77 76 70 69 68 66 69 70 70 71 71 69 66 64 62 62 63 63 56 54 59 62 63 63 61 63 65 66 69 72 75 79 81 83 86 90 94 96 101 110 117 123 128 130 132 136 142 151 159 166 171 168 164
77 72 68 67 67 66 66 67 68 66 64 63 64 63 61 62 63 63 64 65 65 72 75 68 65 66 64 66 69 67 68 69 67 64 62 60 60 61 61 55 53 58 60 61 60 59 62 64 65 69 72 75 79 81 84 87 90 94 98 104 112 121 127 130 132 133 135 143 152 160 169 173 172 170
77 73 68 65 64 64 65 67 67 64 62 62 62 61 60 60 63 64 64 65 63 66 71 68 64 64 63 64 66 65 65 67 66 63 60 59 58 59 59 55 53 57 59 59 58 57 60 62 64 68 71 75 78 81 84 87 90 94 99 105 114 123 130 132 133 134 136 144 154 163 172 177 177 175
75 72 68 64 62 62 63 66 67 64 61 61 61 60 59 60 63 64 64 64 62 61 65 66 63 62 62 63 65 63 63 64 64 62 59 57 57 57 56 53 53 56 58 57 56 56 59 61 63 67 70 74 78 81 84 87 90 93 99 106 114 124 131 132 133 134 137 146 156 166 175 180 180 176
72 71 67 62 60 60 62 65 66 63 61 60 59 58 60 61 62 63 63 63 61 58 60 62 62 60 61 63 63 62 61 62 62 60 57 56 56 56 54 51 52 55 56 55 54 55 58 60 62 66 69 73 77 80 84 88 90 94 99 106 114 124 131 132 133 134 137 145 157 167 176 181 180 176
68 69 65 60 58 58 61 63 65 63 60 59 58 58 60 62 61 62 63 61 59 57 57 58 59 59 60 61 62 60 59 60 61 59 56 54 54 54 53 49 50 54 54 53 53 54 57 59 62 65 68 71 75 79 83 88 91 95 101 108 115 124 131 131 132 133 135 143 155 167 176 181 179 175
65 66 63 59 56 57 59 62 63 62 59 57 57 58 60 61 61 61 61 59 57 56 55 55 56 58 59 60 60 59 57 59 59 57 55 55 53 52 51 48 47 51 53 51 51 53 56 59 61 65 68 70 74 77 83 88 92 96 102 109 116 123 129 129 129 132 135 142 155 167 176 181 179 174
63 63 61 57 55 56 58 61 61 60 58 56 57 59 60 59 60 60 59 58 57 55 54 53 53 56 58 58 58 58 56 57 57 53 53 55 54 50 48 46 47 50 51 50 50 53 56 58 61 64 67 70 73 76 82 88 92 97 103 109 116 122 127 127 126 130 135 144 157 169 177 182 179 173
61 61 59 56 54 55 58 59 59 57 55 55 57 59 58 58 59 58 57 57 57 54 53 52 52 55 57 56 56 56 54 55 54 50 49 53 54 50 46 44 45 49 50 49 49 51 54 57 60 64 67 70 73 76 80 87 92 97 103 109 115 121 125 124 125 130 136 146 159 170 178 182 178 173
60 59 58 55 54 55 57 57 57 55 54 55 57 57 57 57 57 55 55 56 55 53 53 53 52 53 55 54 53 53 52 52 52 49 47 50 52 50 46 42 43 48 50 48 47 50 53 56 60 63 67 70 72 75 80 86 92 97 103 109 115 121 123 122 124 130 137 147 161 172 179 182 178 174
58 58 56 55 54 55 55 55 54 53 53 55 56 56 57 56 54 53 55 56 54 53 53 53 52 52 53 52 50 50 50 50 49 47 45 48 49 48 45 43 42 47 50 47 46 48 51 55 59 63 66 69 72 75 79 85 92 96 102 109 115 119 121 121 124 130 138 148 162 174 180 181 178 174
57 56 56 55 54 53 54 53 51 52 54 55 55 55 56 54 51 51 53 55 54 53 53 54 53 51 52 51 48 47 49 49 48 45 43 45 48 45 44 43 42 45 49 46 44 47 50 54 58 62 65 68 71 75 79 84 91 96 101 108 114 118 119 119 123 130 139 150 164 175 181 182 179 174
55 55 56 55 53 52 51 50 50 52 53 53 54 55 54 51 49 49 51 52 53 52 54 55 54 51 50 50 47 45 47 48 47 44 41 43 46 45 42 42 42 44 47 45 43 45 49 53 57 61 64 67 70 74 78 83 89 95 100 107 113 117 118 118 123 131 141 153 166 177 182 182 179 175
54 55 56 54 51 50 49 48 49 52 52 52 53 54 52 49 48 48 49 50 50 50 52 55 55 52 49 48 46 44 46 47 46 44 41 41 43 43 42 41 41 43 45 44 42 44 47 52 57 61 63 66 69 73 77 81 87 93 99 105 112 115 116 118 124 132 143 156 169 179 184 182 179 174
53 55 54 51 49 48 47 46 49 51 51 52 53 51 49 47 47 47 47 48 48 49 50 52 53 52 49 46 45 44 45 46 45 43 41 41 41 41 41 41 41 43 44 43 41 42 46 51 57 60 62 64 68 72 76 80 85 91 97 104 110 113 114 118 125 134 146 160 172 181 185 183 179 174
53 54 51 48 47 46 45 46 48 49 50 52 52 49 47 46 45 45 46 46 47 48 49 50 50 50 48 45 43 43 44 45 45 43 41 41 41 40 39 40 41 42 42 41 41 41 44 51 57 59 61 64 68 72 76 79 84 90 96 103 109 111 113 118 126 136 149 163 175 183 186 183 179 174
53 51 47 45 44 44 44 45 46 47 50 51 49 46 45 45 44 44 45 45 46 46 47 48 49 48 46 44 42 42 44 45 46 44 41 41 42 40 38 39 40 42 41 40 40 40 44 51 57 58 60 64 68 71 75 79 84 90 96 102 108 110 113 119 128 139 152 166 177 184 187 184 180 175
50 46 42 42 42 42 43 43 44 47 50 49 46 45 44 43 43 44 44 44 43 43 44 46 47 47 45 44 42 42 43 44 45 44 41 40 40 39 38 38 39 41 41 39 39 40 43 51 56 57 59 63 67 70 75 79 84 90 96 102 108 111 114 122 131 142 156 168 178 185 187 184 181 178
46 41 39 40 40 40 41 42 44 47 47 45 44 44 43 42 42 43 43 42 41 40 41 43 45 45 45 44 43 42 42 42 41 40 39 39 38 36 37 37 38 40 40 38 38 40 44 51 55 55 58 63 66 70 74 78 83 90 96 103 108 111 115 124 134 145 158 171 181 186 188 185 182 180
39 37 38 39 39 38 39 41 44 45 44 42 42 42 42 42 42 42 42 42 40 39 39 40 42 43 42 42 43 42 40 39 36 35 36 37 36 34 35 36 37 39 39 37 38 40 43 50 53 54 58 63 65 69 74 78 83 89 96 103 107 111 116 125 136 147 160 173 183 188 189 186 184 182
35 35 37 37 37 37 39 41 43 42 41 41 41 41 41 41 41 41 41 40 39 38 38 39 40 40 39 39 39 39 38 37 34 33 33 34 34 33 33 35 36 38 38 36 37 39 43 49 52 53 57 61 64 68 73 77 82 89 96 103 108 111 116 126 136 147 161 174 184 188 189 188 185 183
33 35 36 35 35 36 39 40 40 39 39 39 39 40 41 41 41 40 39 38 37 37 38 38 38 37 36 36 37 37 37 36 34 33 32 32 32 31 31 33 35 36 36 35 36 38 42 47 51 52 56 60 63 67 72 76 82 89 96 104 109 112 117 126 136 147 161 175 184 189 190 188 186 183
33 34 33 33 34 36 38 38 37 37 37 37 38 39 40 40 40 39 37 36 36 36 37 37 37 36 34 34 35 36 37 36 34 33 32 31 30 29 29 31 33 35 35 34 34 37 41 46 49 51 55 59 63 67 72 77 83 89 96 104 109 113 119 127 136 148 163 177 185 189 190 188 185 183
32 31 31 32 34 36 36 35 35 35 36 36 37 38 38 39 38 37 36 35 34 34 35 36 36 35 33 32 33 34 35 35 34 32 30 30 29 28 28 30 32 33 33 32 33 36 40 45 48 50 54 59 63 67 72 76 82 89 96 103 109 113 120 129 138 150 165 178 186 190 191 188 185 183
29 29 30 32 33 33 33 33 33 34 35 36 36 37 37 37 36 35 35 34 34 33 33 34 35 35 34 32 32 33 34 33 32 31 29 28 27 26 26 28 30 31 31 30 31 35 40 45 48 50 53 59 63 67 71 76 81 89 96 103 108 113 121 130 140 152 167 179 187 191 191 188 186 184
27 29 30 31 31 31 31 31 32 33 34 35 35 35 35 35 34 34 34 33 33 32 33 33 34 34 33 33 32 32 32 31 30 29 27 26 25 24 25 27 28 29 28 28 30 34 40 44 47 50 53 58 62 66 70 75 81 89 96 102 108 114 122 132 142 155 169 180 187 192 192 189 187 185
27 28 29 29 29 29 29 30 31 32 33 34 34 34 33 33 33 33 33 32 31 31 32 33 33 33 32 32 31 31 29 28 28 27 26 24 24 23 23 25 26 26 26 27 29 34 39 44 47 49 53 58 62 66 70 75 81 88 96 102 107 114 122 133 143 156 169 180 187 192 193 191 189 187
26 27 27 27 27 27 28 29 30 32 32 32 32 32 31 31 32 32 32 31 30 30 31 32 33 32 30 29 29 28 27 26 25 25 24 23 22 21 21 23 24 24 24 25 29 34 39 44 47 49 53 58 62 66 71 76 81 88 95 102 108 114 123 133 144 156 169 180 187 193 195 193 191 189
25 25 25 25 25 25 27 29 30 30 31 31 31 30 30 30 30 31 30 29 29 29 30 31 32 31 29 27 26 26 25 24 24 23 23 22 21 20 20 21 22 22 23 25 29 34 39 44 47 49 53 57 62 66 71 76 81 88 95 101 108 115 123 133 144 156 169 180 187 194 196 194 192 190
23 24 23 23 24 25 27 28 29 29 29 29 29 29 28 29 29 29 29 28 28 28 29 30 31 30 28 26 25 25 24 23 22 22 21 21 20 19 19 20 21 21 22 24 29 34 39 44 47 49 53 57 62 66 71 76 81 88 95 101 109 116 124 134 144 156 169 180 187 194 197 195 193 191
22 22 22 22 24 25 26 27 27 28 28 28 28 27 27 27 27 27 27 27 27 28 28 29 29 28 26 25 24 24 23 22 22 21 20 19 19 18 18 19 19 20 21 24 29 34 39 43 46 49 53 58 62 66 71 75 81 87 94 102 109 116 124 133 143 154 168 179 187 193 197 196 193 191
20 21 21 22 23 25 25 26 26 26 26 26 27 26 26 26 26 25 26 26 27 27 28 28 28 28 26 24 23 23 23 22 21 20 19 18 18 18 18 18 19 19 21 24 29 33 39 43 46 49 53 57 62 67 71 76 81 87 95 103 110 116 124 132 141 152 166 178 186 193 197 197 194 192
19 20 21 22 23 24 24 24 25 25 25 26 26 26 25 25 24 24 24 25 26 27 27 27 27 27 26 24 22 22 22 21 20 20 19 18 17 18 17 18 18 19 21 24 29 33 38 42 46 49 53 57 62 67 72 76 81 87 95 103 110 117 124 132 140 149 163 177 186 192 197 198 195 192
19 19 21 22 22 22 22 23 23 24 25 25 25 25 24 24 23 23 23 24 25 26 26 26 26 26 26 25 22 21 21 20 19 19 19 17 17 17 17 17 18 19 21 24 28 32 37 42 46 49 53 57 62 66 71 76 81 87 94 103 110 117 124 131 138 147 161 175 185 191 196 198 196 194
18 19 20 21 21 21 21 22 22 23 24 24 24 24 23 23 22 21 22 22 24 25 25 26 25 25 25 24 23 21 21 20 19 18 18 18 17 16 17 18 18 19 21 24 28 32 36 41 45 49 53 57 62 66 71 76 81 88 95 103 110 117 124 131 138 146 159 174 184 190 196 199 197 195
18 19 19 19 19 19 20 21 22 23 24 24 23 23 23 22 21 21 21 21 22 23 25 25 26 25 24 24 22 21 20 20 19 18 17 18 17 16 17 18 18 19 21 24 28 32 36 40 45 49 53 57 61 66 71 76 81 88 95 102 110 117 124 132 138 145 158 173 184 190 195 199 198 196
17 18 18 18 18 19 20 21 22 23 23 23 23 23 22 21 21 21 21 21 21 22 23 25 25 25 25 24 23 21 20 20 19 18 17 17 17 17 17 17 19 20 21 23 27 31 35 39 44 49 52 56 61 65 70 76 81 86 93 101 109 116 123 131 138 146 158 173 184 190 196 199 199 197
16 16 16 16 17 18 20 21 22 22 23 22 22 22 22 21 20 20 20 20 21 21 22 24 25 25 25 25 24 23 21 20 19 18 17 17 17 17 17 18 19 20 21 23 27 31 34 38 43 48 52 56 60 65 70 75 81 85 91 98 107 115 122 130 137 145 157 172 184 191 196 199 200 198
14 14 15 16 17 18 20 21 22 22 22 22 22 22 21 21 20 20 20 20 20 21 22 22 24 25 25 25 25 24 22 20 19 19 18 17 17 18 18 18 19 21 22 24 27 30 34 38 42 47 51 55 60 64 69 74 80 85 90 97 105 114 121 129 136 144 155 170 183 191 196 200 201 199
13 13 14 16 17 19 20 21 21 22 22 22 22 21 21 21 20 20 20 20 20 21 21 22 23 24 24 25 25 25 24 22 20 19 18 18 18 18 18 19 20 22 23 25 27 30 34 37 42 46 51 55 60 64 69 73 79 84 90 95 103 111 119 127 135 143 153 167 181 190 195 199 201 200
12 13 14 16 18 19 20 21 22 22 22 21 21 21 21 21 20 20 20 20 20 20 21 22 22 23 24 25 25 25 25 23 21 19 18 18 18 18 19 19 20 22 24 25 27 30 33 37 41 46 50 55 59 63 68 73 78 84 89 94 100 109 117 125 132 140 150 163 178 188 194 199 201 201
12 13 15 16 18 19 20 21 22 22 22 21 21 21 21 20 20 20 20 20 20 20 21 22 22 23 24 24 25 25 25 25 23 20 19 19 18 19 20 20 21 22 24 26 28 30 33 37 40 45 50 54 58 62 67 72 77 83 88 93 98 105 114 123 130 138 147 159 173 185 192 197 201 202
Wind_Direction
279 279 280 280 281 281 280 280 280 280 279 279 278 277 276 274 273 275 278 281 281 281 281 282 282 283 283 281 279 278 277 276 275 275 274 273 272 270 268 265 263 261 258 256 253 251 249 246 243 240 237 234 230 226 224 222 221 219 215 210 205 203 204 207 209 208 206 204 200 198 197 196 195 196
278 279 280 280 281 281 281 281 280 280 280 279 279 277 276 275 274 274 276 279 281 282 282 283 283 284 284 282 280 278 277 276 276 276 275 274 272 270 268 265 262 260 257 255 253 250 248 244 241 238 235 231 228 225 223 221 219 217 213 209 204 201 202 206 208 207 206 203 200 197 196 194 194 194
278 279 279 280 280 280 280 280 280 280 280 279 278 277 276 275 275 275 276 278 281 282 283 284 284 284 283 281 280 279 278 277 277 277 276 275 273 271 269 266 262 260 257 255 253 250 246 243 240 237 233 230 227 225 222 220 218 215 211 207 204 201 201 204 206 206 205 203 200 197 195 193 193 193
277 278 279 279 279 279 280 280 280 280 280 279 278 277 277 277 277 277 278 279 282 284 284 284 284 284 282 280 279 279 279 278 278 277 276 275 273 272 271 267 263 260 257 254 252 249 246 242 238 235 232 228 226 224 221 218 216 213 209 206 204 201 201 203 205 205 204 202 199 196 194 192 192 192
276 277 278 279 279 279 280 280 280 280 280 279 278 277 277 278 278 279 279 280 282 284 285 284 284 283 281 280 279 279 280 280 279 278 276 275 274 272 271 268 263 260 258 255 252 248 244 241 237 233 230 227 225 223 221 217 215 212 208 205 203 202 201 202 204 204 202 200 198 195 193 192 192 193
274 276 277 278 279 279 280 281 281 281 280 279 279 278 278 279 280 280 281 282 283 284 285 285 284 283 281 280 279 279 280 280 280 279 277 275 274 272 270 268 264 260 257 255 251 246 243 239 235 232 229 226 224 222 220 217 214 211 208 205 204 203 202 203 203 203 201 199 197 195 193 192 192 195
272 275 276 277 279 279 280 281 281 281 281 280 280 280 280 280 281 281 282 283 283 284 285 285 284 284 283 282 281 281 281 281 280 279 278 276 274 271 269 267 264 260 257 254 249 244 241 237 233 231 228 225 223 220 219 216 212 210 208 205 204 204 204 203 203 203 200 198 196 194 192 192 193 195
270 273 275 276 278 279 280 281 281 282 281 281 281 281 281 281 282 283 283 284 284 284 285 285 285 284 284 283 282 282 282 281 280 279 278 276 274 272 269 266 263 259 255 252 247 242 239 236 232 229 227 224 221 219 217 215 211 208 207 205 204 204 205 204 203 203 200 197 195 193 192 192 193 195
269 271 274 276 277 278 279 280 281 282 282 282 282 282 281 282 283 284 285 285 285 285 285 286 286 285 284 284 283 283 282 282 281 281 279 276 274 272 270 265 260 257 254 249 245 240 236 233 230 228 225 223 220 217 216 213 210 207 206 205 204 204 206 205 203 202 200 197 195 192 192 192 193 195
269 271 273 275 276 277 278 279 280 281 282 282 282 282 282 283 285 286 286 287 286 286 285 285 286 286 285 284 284 283 283 282 281 281 280 277 273 272 270 265 258 256 253 248 242 238 234 231 229 227 224 222 219 216 214 212 209 206 205 205 204 204 206 206 204 201 198 196 194 192 191 192 193 194
270 271 273 274 275 276 277 278 280 280 281 282 282 282 282 284 286 287 288 288 287 286 286 286 286 286 285 284 284 284 283 281 280 279 280 278 275 271 268 264 258 255 252 246 240 236 233 230 227 225 223 220 218 215 213 211 208 205 205 204 204 204 206 206 204 200 197 195 193 191 191 192 193 193
270 271 272 274 274 275 276 278 279 280 281 282 282 282 284 286 287 289 290 289 288 288 287 287 286 285 284 283 283 282 281 280 279 278 277 276 275 272 267 261 258 255 251 245 238 234 232 229 226 224 222 219 217 214 213 211 208 205 204 204 204 204 205 205 203 200 196 194 192 191 191 192 192 192
270 271 272 274 273 274 276 277 278 279 281 281 282 283 285 287 288 291 291 289 289 289 289 288 286 284 283 283 282 282 281 280 279 279 277 274 273 271 267 260 256 255 251 243 237 233 230 227 225 223 221 219 216 214 212 210 208 205 204 204 203 204 205 204 202 199 196 194 191 190 190 191 191 191
270 271 272 273 273 273 275 276 278 280 280 281 282 285 286 288 290 293 292 291 290 291 290 288 286 285 285 284 283 284 283 281 280 279 278 275 271 269 266 260 254 253 251 243 235 232 229 226 224 222 220 218 215 213 211 209 208 205 204 203 203 204 204 203 200 198 195 193 191 189 190 191 191 191
269 270 271 272 272 273 275 276 278 280 280 281 283 285 287 289 292 294 293 293 293 293 292 290 288 287 287 286 285 285 284 283 281 280 278 275 271 268 265 260 254 252 251 244 235 231 228 226 224 222 220 218 215 212 210 209 207 205 204 203 203 203 203 201 199 196 194 192 190 189 189 190 191 191
268 269 270 271 271 273 274 277 278 279 280 282 284 285 287 290 293 293 293 293 294 295 294 291 289 288 288 287 287 286 285 284 283 281 278 274 271 268 264 260 254 252 250 244 235 229 227 225 223 221 219 217 215 212 211 209 207 205 204 203 203 202 202 200 198 195 193 191 189 188 189 190 190 191
266 267 269 270 271 272 274 277 278 279 280 283 284 286 289 292 293 293 292 293 294 294 293 291 290 289 288 288 288 287 286 285 284 282 278 273 269 267 264 260 255 252 250 245 235 228 226 225 223 221 218 216 214 212 211 209 207 205 204 203 203 202 201 199 196 194 192 191 189 188 189 190 190 191
264 266 268 270 271 272 274 276 277 279 281 283 284 287 290 293 293 293 293 294 295 293 290 289 289 290 290 290 290 289 288 287 285 284 280 275 269 266 263 260 255 252 250 245 235 228 225 224 223 220 217 215 213 212 210 208 207 204 203 203 203 201 199 197 195 193 192 190 188 188 189 190 190 191
262 264 267 268 269 272 274 275 277 280 282 283 285 289 292 293 293 294 295 295 294 292 290 289 288 289 290 290 291 290 290 288 286 284 281 276 271 266 262 259 256 252 249 244 236 226 223 224 223 219 216 214 212 210 208 207 206 204 203 203 202 201 198 196 194 192 191 190 188 188 189 189 190 191
261 264 266 267 269 271 274 275 278 281 282 284 288 291 293 293 294 295 295 295 293 291 290 289 289 290 291 291 292 292 291 288 286 283 278 274 271 267 261 257 254 252 248 243 235 226 221 224 223 218 215 214 212 210 208 206 204 203 202 202 202 200 197 194 193 191 191 189 188 188 188 189 189 191
260 263 264 266 268 271 273 276 280 281 283 286 290 292 293 293 294 295 295 294 292 291 291 291 291 292 292 293 292 291 288 285 283 280 276 271 268 266 262 256 252 251 248 242 234 226 220 223 222 217 214 213 211 209 207 205 203 201 201 202 201 199 196 193 192 191 190 189 188 188 188 188 189 191
260 262 263 265 267 270 273 277 279 281 284 288 292 293 293 294 295 295 295 293 292 291 290 290 291 291 292 292 291 289 285 282 278 275 273 270 267 264 261 256 251 249 247 241 233 225 220 222 221 216 213 213 210 208 207 205 203 200 200 201 200 198 195 193 192 191 190 188 188 188 188 188 190 191
260 261 263 264 267 270 274 277 279 282 286 290 292 293 294 295 295 295 295 294 292 290 289 289 288 289 289 290 289 288 285 282 277 272 270 269 267 263 258 255 251 248 245 240 232 225 221 221 220 215 212 212 210 207 206 205 203 200 198 199 200 198 195 193 192 191 190 189 188 188 188 189 190 191
259 260 261 264 267 271 274 277 280 284 289 291 293 293 294 295 295 295 295 294 293 292 291 289 288 288 289 289 289 289 287 285 281 276 271 268 266 262 257 253 250 247 244 239 231 224 220 221 219 214 212 211 209 207 206 204 202 199 197 198 199 198 195 193 192 192 190 189 188 188 188 189 190 191
256 258 260 264 268 272 274 277 282 287 290 292 293 293 294 295 295 295 295 295 295 294 292 291 291 292 293 294 293 292 290 287 284 280 276 271 266 261 256 252 249 247 243 237 230 223 220 220 218 213 211 210 208 206 205 204 202 199 197 197 197 197 194 192 192 191 190 189 188 188 189 190 190 191
254 257 261 265 269 272 275 280 285 289 291 292 292 293 294 295 295 295 295 296 296 295 294 293 292 292 293 294 294 292 290 287 284 280 277 274 268 262 256 251 248 246 242 236 228 222 219 219 217 213 210 209 207 205 204 203 201 199 197 196 196 196 194 192 192 191 190 189 188 188 189 190 191 192
254 257 262 266 270 273 278 283 287 290 291 291 292 293 294 294 295 296 297 297 297 296 294 294 294 294 294 294 293 291 288 285 282 279 276 273 268 262 256 251 247 245 241 234 226 221 218 218 216 212 209 208 206 204 203 203 201 199 197 197 196 195 193 192 192 191 190 189 189 188 189 190 191 192
255 259 263 267 272 277 282 286 288 290 290 291 292 293 293 294 296 297 299 299 298 296 294 294 295 296 297 296 294 291 288 284 281 278 276 273 267 261 255 250 246 243 239 231 224 219 217 217 215 210 208 207 205 203 202 202 200 199 197 197 196 194 192 192 191 191 190 190 189 188 189 190 191 192
257 261 265 270 275 280 285 288 289 290 290 290 291 292 293 295 297 299 299 299 297 296 295 295 296 297 298 297 294 291 287 284 281 279 277 273 267 261 255 250 246 242 236 228 222 218 216 216 214 210 207 206 205 203 202 201 200 198 197 197 196 194 192 192 192 191 191 190 189 188 189 190 191 193
259 263 268 274 279 283 286 288 289 288 289 290 291 293 295 297 299 299 299 298 297 298 297 297 297 297 297 295 292 289 286 282 280 279 278 275 269 261 254 249 245 240 233 226 220 216 215 215 213 209 206 205 204 202 201 200 199 198 197 196 196 195 193 192 192 192 191 190 189 188 189 190 192 193
262 268 273 278 282 285 287 288 287 287 288 289 291 293 296 298 300 299 298 298 298 298 297 297 296 296 295 293 291 289 287 284 281 280 278 275 270 262 254 249 244 238 231 224 218 215 214 213 211 208 205 204 203 201 200 200 199 198 196 196 195 195 193 192 192 192 192 191 190 189 189 191 192 194
267 272 276 281 284 286 286 285 285 286 288 290 292 295 298 300 300 299 297 297 297 297 296 296 296 297 297 296 295 293 290 286 283 281 280 276 271 263 255 248 242 236 228 221 216 214 213 212 210 207 204 203 202 201 200 199 199 197 196 195 195 195 194 193 193 193 192 192 190 189 190 191 193 194
271 275 279 282 284 284 283 283 284 286 288 291 294 297 300 301 299 298 298 298 297 297 296 296 296 298 299 299 299 297 294 290 286 282 281 278 272 264 256 248 241 234 226 220 215 212 212 211 209 206 203 202 201 200 200 199 199 197 196 195 195 195 194 193 193 194 193 192 191 190 190 192 193 195
274 278 281 283 283 282 281 282 285 287 289 292 296 299 302 301 300 299 299 298 297 297 296 295 296 298 300 301 302 300 297 293 288 284 281 278 273 265 256 248 240 232 225 218 213 211 211 210 208 205 203 202 201 200 199 199 198 197 196 195 195 195 195 194 194 194 194 193 192 191 191 193 194 196
277 280 281 281 280 280 281 283 286 288 291 295 299 302 303 302 301 300 299 298 297 296 296 297 299 300 303 304 304 302 299 294 290 286 282 278 273 265 257 247 239 231 224 216 211 210 210 209 207 205 203 202 201 199 198 199 198 197 196 195 195 195 195 195 195 195 195 194 193 192 192 193 195 196
278 280 280 278 278 279 282 284 287 290 294 298 302 303 303 303 302 301 299 298 297 296 296 299 301 303 304 305 305 303 300 296 291 287 282 278 272 265 257 247 238 230 223 215 210 209 209 208 207 205 203 202 201 200 199 198 198 197 196 195 195 195 195 195 195 195 195 195 194 193 193 194 196 197
278 278 277 277 278 280 282 285 289 293 298 301 303 304 304 304 303 302 300 298 296 296 297 299 301 303 304 305 306 305 301 297 292 287 283 278 271 264 256 247 237 229 222 214 209 207 208 208 206 204 203 202 201 200 199 198 198 197 197 196 195 195 196 196 195 195 195 195 195 193 193 195 197 198
278 277 276 278 280 282 285 289 293 297 300 303 304 304 305 305 304 302 300 298 296 297 298 299 301 302 303 304 306 307 305 300 295 288 283 278 271 262 255 246 236 229 222 214 208 206 207 207 206 204 203 202 201 200 199 199 198 197 197 197 196 195 196 196 196 195 195 195 195 194 194 196 197 199
276 275 277 279 282 285 289 293 296 300 303 304 305 306 306 306 305 303 301 298 297 297 299 300 301 302 303 304 306 307 307 303 297 290 283 278 272 262 254 246 237 228 222 215 208 206 206 206 206 205 203 202 202 201 199 199 199 198 197 197 197 196 196 196 196 195 195 195 196 195 195 196 198 199
274 275 278 281 284 288 292 296 299 302 305 306 308 308 308 307 306 304 301 299 297 297 299 300 301 303 304 305 307 308 308 304 299 292 283 276 271 263 253 245 237 229 222 216 209 206 206 206 206 205 204 202 202 201 200 199 200 199 198 198 197 197 197 197 196 196 195 195 196 196 196 197 199 200
273 277 280 284 287 291 294 298 302 304 307 308 309 309 309 307 305 303 300 297 295 295 297 299 302 303 305 306 307 308 308 305 300 294 284 275 269 262 253 245 237 230 223 217 211 206 206 206 206 205 205 203 202 202 201 200 200 200 199 199 198 198 198 197 197 197 196 196 196 196 197 198 199 201
275 278 282 285 290 293 297 301 304 306 309 311 310 310 309 308 305 302 299 296 294 294 296 299 301 303 305 306 306 307 307 305 301 294 285 275 267 261 253 244 237 231 224 219 213 208 206 206 205 205 205 204 203 202 202 201 200 200 200 200 199 199 198 198 198 198 197 197 197 197 197 198 200 201
277 281 285 289 293 297 300 304 307 310 312 312 312 311 310 308 305 302 299 295 294 295 296 298 300 302 303 305 305 305 305 304 301 295 287 276 266 259 252 244 237 231 225 220 215 210 207 206 205 205 204 205 204 203 202 202 201 201 201 200 200 199 199 199 199 199 198 198 198 198 198 199 200 201
279 284 288 292 296 300 303 307 310 312 313 313 313 312 310 308 305 301 298 296 295 295 295 296 298 300 302 303 303 303 303 303 301 296 288 279 267 258 251 244 237 231 226 221 217 212 208 206 206 205 204 205 205 205 203 202 202 202 201 201 201 200 200 200 200 200 199 199 199 200 199 200 201 202
283 288 293 297 300 303 307 309 312 313 314 314 314 312 310 308 305 301 298 296 295 294 295 296 297 299 301 301 302 301 301 300 299 295 289 281 271 260 252 245 238 232 227 222 219 215 211 208 207 206 205 205 205 206 205 203 203 203 202 202 201 201 201 201 201 201 201 200 200 201 201 201 201 202
Height
10113 10113 10111 10109 10105 10101 10099 10097 10093 10091 10089 10088 10086 10084 10083 10084 10085 10080 10074 10062 10040 10033 10045 10050 10046 10045 10045 10043 10038 10034 10033 10029 10028 10028 10026 10026 10026 10021 10020 10023 10025 10024 10022 10021 10022 10024 10027 10031 10035 10039 10044 10049 10055 10060 10066 10073 10080 10089 10101 10112 10123 10135 10147 10161 10175 10188 10201 10216 10235 10255 10276 10299 10328 10356
10103 10102 10101 10098 10095 10091 10089 10087 10083 10080 10079 10077 10075 10073 10072 10072 10072 10070 10069 10060 10035 10024 10035 10039 10036 10037 10033 10027 10026 10023 10021 10018 10016 10016 10015 10014 10014 10010 10008 10012 10013 10011 10010 10009 10010 10014 10016 10019 10023 10027 10032 10037 10042 10048 10054 10061 10069 10078 10091 10103 10114 10124 10136 10150 10164 10177 10192 10210 10228 10248 10269 10296 10324 10346
10092 10092 10091 10088 10085 10082 10080 10077 10073 10070 10069 10067 10064 10062 10061 10060 10059 10057 10058 10055 10034 10018 10025 10030 10025 10028 10025 10016 10013 10012 10009 10006 10005 10004 10004 10003 10002 9999 9997 10000 10002 9999 9998 9998 9999 10003 10005 10008 10012 10015 10020 10025 10030 10036 10043 10050 10058 10068 10080 10094 10105 10113 10122 10135 10149 10164 10182 10202 10221 10241 10264 10291 10315 10331
10081 10082 10081 10078 10075 10074 10071 10066 10062 10061 10059 10057 10054 10052 10051 10048 10047 10046 10044 10044 10032 10014 10014 10021 10017 10015 10016 10008 10002 10003 9998 9994 9995 9994 9993 9993 9991 9988 9986 9988 9990 9988 9986 9987 9989 9992 9994 9996 10000 10003 10008 10013 10019 10025 10032 10039 10047 10057 10068 10081 10093 10101 10108 10120 10134 10151 10171 10191 10212 10234 10258 10283 10304 10314
10070 10071 10071 10068 10065 10064 10062 10056 10052 10051 10049 10046 10043 10041 10041 10039 10035 10034 10032 10030 10028 10012 10002 10010 10010 10005 10005 9999 9993 9994 9989 9982 9983 9983 9983 9982 9980 9977 9976 9977 9978 9977 9975 9975 9978 9981 9982 9985 9989 9992 9996 10002 10008 10015 10022 10029 10038 10048 10058 10069 10080 10088 10096 10108 10122 10139 10159 10180 10202 10226 10251 10276 10292 10300
10059 10061 10061 10058 10056 10054 10052 10046 10042 10041 10039 10036 10034 10031 10031 10029 10024 10022 10021 10018 10019 10010 9996 9996 10000 9995 9993 9989 9984 9984 9981 9974 9971 9972 9972 9971 9970 9967 9966 9966 9967 9966 9964 9965 9967 9970 9971 9974 9978 9981 9986 9991 9997 10004 10011 10019 10028 10040 10050 10060 10069 10077 10085 10097 10111 10127 10147 10168 10191 10216 10239 10263 10279 10289
10049 10050 10050 10048 10047 10045 10041 10036 10031 10031 10029 10025 10024 10022 10020 10019 10015 10010 10010 10008 10007 10005 9993 9987 9989 9986 9981 9978 9974 9973 9972 9966 9962 9962 9962 9960 9959 9958 9956 9956 9956 9954 9954 9955 9957 9960 9961 9963 9967 9970 9975 9981 9986 9993 10001 10010 10019 10031 10043 10052 10061 10069 10076 10089 10103 10118 10135 10155 10177 10202 10225 10245 10262 10277
10039 10040 10040 10039 10038 10035 10031 10026 10022 10020 10019 10017 10015 10013 10010 10008 10005 10001 9999 9998 9996 9995 9989 9980 9978 9977 9972 9967 9965 9964 9961 9957 9953 9953 9952 9950 9948 9947 9946 9946 9945 9944 9944 9945 9947 9950 9951 9953 9957 9960 9965 9971 9976 9983 9992 10000 10010 10022 10034 10044 10053 10060 10068 10080 10094 10110 10127 10144 10166 10192 10217 10237 10252 10268
10030 10029 10030 10030 10028 10026 10020 10016 10013 10011 10010 10008 10006 10004 10001 9998 9996 9992 9989 9988 9986 9985 9981 9975 9969 9967 9963 9959 9955 9955 9953 9948 9944 9943 9942 9940 9939 9937 9935 9937 9936 9933 9934 9936 9938 9940 9942 9944 9947 9951 9955 9961 9967 9974 9981 9990 10000 10011 10022 10032 10041 10050 10059 10071 10085 10102 10122 10142 10163 10188 10212 10231 10247 10264
10020 10019 10020 10020 10019 10016 10011 10007 10004 10002 10001 10000 9998 9995 9993 9989 9986 9982 9979 9977 9976 9974 9972 9968 9963 9958 9955 9951 9947 9946 9945 9940 9936 9935 9932 9929 9930 9928 9925 9927 9927 9925 9924 9927 9929 9931 9932 9935 9938 9941 9946 9952 9958 9965 9972 9980 9990 10001 10010 10020 10030 10040 10050 10064 10079 10096 10116 10138 10160 10183 10204 10222 10240 10258
10010 10010 10010 10010 10009 10006 10002 9998 9995 9994 9993 9992 9989 9986 9984 9981 9977 9973 9970 9967 9966 9965 9962 9959 9956 9951 9946 9944 9940 9937 9936 9931 9928 9929 9925 9918 9918 9919 9917 9918 9918 9916 9916 9918 9920 9922 9924 9927 9930 9933 9938 9943 9949 9957 9964 9972 9981 9991 10001 10012 10023 10032 10044 10058 10075 10092 10111 10130 10151 10175 10196 10214 10233 10252
10000 10001 10000 10000 9999 9996 9992 9990 9987 9986 9985 9983 9980 9978 9975 9972 9968 9965 9962 9958 9956 9955 9952 9950 9948 9944 9939 9937 9933 9929 9927 9923 9919 9921 9919 9912 9908 9909 9909 9910 9910 9908 9907 9909 9912 9914 9917 9919 9922 9925 9929 9935 9941 9948 9956 9965 9973 9982 9992 10003 10014 10024 10037 10053 10070 10087 10105 10123 10144 10167 10187 10205 10225 10245
9991 9991 9991 9990 9988 9986 9984 9982 9980 9978 9977 9974 9971 9969 9967 9963 9960 9957 9953 9950 9948 9946 9943 9940 9939 9936 9931 9929 9926 9921 9918 9915 9911 9911 9911 9905 9901 9900 9900 9902 9903 9900 9898 9901 9904 9907 9910 9912 9914 9918 9922 9927 9934 9941 9948 9957 9965 9974 9983 9994 10005 10016 10029 10046 10064 10081 10098 10116 10137 10159 10179 10198 10218 10237
9982 9982 9982 9980 9978 9977 9975 9973 9972 9971 9968 9966 9964 9961 9958 9955 9953 9950 9945 9941 9939 9937 9933 9930 9929 9927 9923 9920 9918 9913 9908 9906 9904 9903 9902 9897 9894 9893 9892 9893 9895 9893 9890 9893 9897 9900 9902 9905 9907 9911 9914 9920 9927 9934 9940 9948 9957 9966 9976 9986 9997 10009 10023 10040 10058 10076 10092 10110 10130 10151 10170 10191 10211 10230
9973 9973 9972 9970 9969 9969 9967 9965 9964 9962 9960 9958 9956 9953 9951 9948 9946 9943 9938 9932 9929 9927 9924 9920 9919 9918 9914 9910 9909 9905 9900 9897 9895 9895 9894 9890 9886 9886 9885 9885 9887 9886 9883 9885 9891 9894 9896 9898 9900 9904 9908 9914 9921 9927 9933 9941 9949 9959 9970 9980 9990 10002 10016 10034 10052 10070 10086 10104 10124 10145 10164 10183 10203 10222
9964 9963 9962 9961 9961 9961 9960 9958 9956 9954 9951 9950 9948 9946 9943 9941 9939 9936 9932 9927 9923 9920 9915 9910 9909 9909 9906 9902 9900 9897 9893 9889 9887 9886 9886 9883 9879 9878 9878 9877 9878 9879 9877 9878 9883 9887 9889 9892 9894 9898 9902 9909 9916 9921 9927 9935 9943 9953 9964 9974 9984 9995 10010 10028 10046 10064 10080 10098 10118 10138 10158 10177 10196 10215
9955 9954 9952 9952 9953 9953 9952 9951 9948 9945 9944 9942 9940 9938 9936 9934 9931 9928 9924 9921 9917 9914 9909 9904 9900 9899 9898 9895 9891 9889 9885 9881 9879 9878 9877 9876 9872 9871 9871 9870 9871 9872 9871 9872 9876 9881 9884 9886 9887 9891 9896 9903 9910 9915 9922 9931 9939 9948 9959 9969 9979 9990 10005 10022 10040 10058 10074 10092 10112 10132 10151 10171 10191 10210
9946 9945 9944 9945 9946 9945 9945 9943 9940 9938 9936 9934 9933 9931 9929 9926 9923 9920 9917 9913 9910 9908 9904 9899 9894 9891 9889 9887 9884 9881 9877 9874 9871 9870 9869 9868 9866 9865 9865 9863 9863 9865 9865 9866 9870 9876 9879 9879 9880 9884 9891 9898 9904 9909 9917 9926 9935 9944 9955 9965 9974 9985 10000 10017 10035 10052 10068 10086 10106 10125 10145 10165 10185 10204
9936 9936 9937 9938 9938 9938 9937 9935 9933 9931 9928 9926 9925 9924 9921 9918 9916 9913 9909 9906 9904 9900 9896 9892 9888 9885 9882 9880 9877 9874 9870 9867 9864 9863 9862 9860 9858 9858 9858 9857 9857 9858 9859 9861 9864 9870 9873 9872 9873 9879 9886 9890 9895 9901 9910 9919 9929 9939 9950 9960 9970 9981 9995 10012 10029 10046 10062 10080 10100 10119 10138 10158 10179 10198
9927 9928 9931 9931 9931 9931 9930 9928 9926 9923 9921 9919 9918 9916 9913 9911 9908 9905 9903 9901 9898 9894 9889 9885 9881 9878 9875 9873 9870 9868 9864 9861 9858 9856 9856 9854 9852 9852 9852 9852 9852 9852 9853 9855 9859 9864 9868 9865 9866 9874 9880 9884 9889 9896 9904 9912 9922 9933 9945 9956 9965 9976 9990 10007 10023 10039 10056 10074 10094 10113 10131 10152 10172 10191
9920 9922 9924 9924 9924 9924 9922 9920 9919 9916 9914 9912 9911 9908 9906 9904 9901 9898 9896 9895 9891 9887 9883 9878 9874 9871 9868 9866 9864 9862 9859 9856 9853 9850 9849 9848 9847 9846 9846 9846 9846 9846 9848 9850 9853 9858 9861 9859 9861 9870 9876 9879 9885 9892 9898 9905 9914 9925 9938 9950 9960 9971 9985 10000 10017 10032 10049 10068 10088 10107 10125 10145 10165 10183
9913 9916 9917 9917 9917 9917 9915 9914 9912 9909 9908 9906 9903 9901 9898 9896 9894 9892 9890 9888 9885 9881 9877 9873 9869 9865 9862 9859 9858 9856 9853 9850 9848 9845 9843 9842 9841 9841 9841 9840 9841 9841 9842 9845 9848 9852 9855 9854 9857 9866 9871 9873 9880 9887 9894 9901 9909 9919 9932 9945 9956 9967 9980 9995 10010 10025 10042 10061 10081 10100 10119 10138 10156 10173
9907 9909 9910 9910 9910 9910 9908 9907 9905 9903 9901 9899 9897 9894 9891 9889 9887 9885 9883 9880 9878 9875 9872 9868 9864 9861 9858 9855 9852 9849 9846 9844 9842 9840 9838 9836 9835 9836 9836 9835 9835 9836 9837 9840 9843 9847 9849 9850 9853 9861 9865 9868 9876 9884 9891 9899 9906 9915 9927 9940 9952 9964 9976 9990 10004 10019 10036 10054 10073 10093 10112 10130 10148 10166
9902 9903 9903 9903 9903 9903 9902 9900 9899 9897 9895 9893 9890 9888 9885 9883 9881 9879 9877 9874 9871 9868 9865 9862 9859 9856 9853 9850 9846 9843 9840 9838 9836 9835 9833 9831 9830 9830 9830 9830 9830 9831 9832 9835 9838 9842 9845 9846 9849 9856 9861 9865 9873 9880 9887 9895 9903 9911 9922 9934 9948 9961 9973 9986 9999 10014 10031 10049 10068 10087 10106 10123 10141 10160
9897 9897 9897 9897 9897 9896 9895 9894 9893 9891 9889 9886 9884 9881 9879 9877 9875 9873 9871 9868 9865 9862 9859 9856 9853 9851 9848 9845 9841 9837 9834 9832 9831 9829 9827 9826 9825 9825 9825 9825 9825 9826 9828 9830 9834 9837 9840 9842 9846 9853 9858 9862 9869 9877 9884 9892 9900 9908 9917 9928 9941 9955 9969 9983 9996 10011 10027 10045 10063 10082 10101 10119 10138 10157
9890 9891 9891 9891 9891 9890 9889 9888 9887 9885 9883 9880 9878 9875 9873 9872 9870 9868 9866 9863 9860 9857 9853 9851 9848 9846 9843 9840 9837 9833 9830 9827 9826 9824 9823 9821 9821 9821 9821 9821 9821 9822 9823 9826 9830 9833 9836 9838 9842 9849 9854 9859 9865 9872 9879 9887 9895 9904 9913 9923 9934 9948 9964 9979 9992 10007 10023 10040 10058 10078 10097 10115 10135 10153
9885 9885 9885 9885 9884 9884 9883 9882 9881 9879 9877 9874 9872 9870 9868 9866 9864 9862 9860 9857 9855 9852 9848 9845 9843 9840 9838 9835 9832 9829 9826 9823 9821 9820 9819 9817 9816 9816 9816 9816 9817 9818 9820 9822 9826 9829 9831 9834 9838 9845 9850 9855 9860 9867 9874 9882 9891 9901 9911 9921 9931 9944 9959 9973 9988 10003 10018 10034 10053 10072 10090 10109 10129 10147
9879 9880 9880 9879 9879 9878 9877 9876 9874 9873 9870 9868 9866 9865 9863 9861 9859 9857 9854 9852 9849 9846 9843 9841 9838 9835 9832 9830 9828 9825 9822 9819 9817 9815 9814 9813 9812 9812 9812 9812 9813 9814 9816 9819 9822 9824 9827 9830 9834 9840 9846 9850 9856 9863 9870 9879 9888 9897 9907 9918 9929 9941 9955 9969 9983 9997 10011 10027 10045 10064 10083 10103 10122 10139
9874 9874 9874 9874 9873 9873 9872 9870 9869 9867 9865 9863 9862 9860 9858 9856 9854 9851 9849 9847 9844 9841 9838 9836 9833 9831 9828 9825 9823 9820 9818 9815 9813 9811 9810 9809 9808 9808 9808 9808 9809 9810 9812 9815 9818 9820 9823 9826 9830 9836 9841 9847 9853 9860 9868 9876 9884 9893 9903 9915 9928 9940 9952 9965 9978 9991 10005 10021 10040 10059 10079 10099 10117 10132
9869 9869 9869 9868 9868 9868 9866 9865 9863 9861 9859 9858 9857 9855 9854 9851 9849 9847 9845 9842 9839 9837 9834 9831 9829 9827 9824 9821 9819 9816 9814 9812 9809 9807 9806 9805 9805 9805 9805 9805 9806 9807 9809 9812 9814 9816 9819 9822 9826 9832 9838 9843 9849 9857 9865 9873 9881 9890 9901 9914 9926 9938 9949 9961 9974 9987 10001 10018 10036 10055 10074 10091 10108 10123
9864 9864 9864 9864 9863 9862 9861 9859 9858 9856 9855 9854 9853 9851 9849 9847 9845 9843 9840 9838 9835 9833 9830 9827 9824 9822 9820 9817 9815 9812 9810 9808 9805 9804 9803 9802 9801 9801 9802 9802 9803 9804 9806 9808 9810 9812 9815 9818 9823 9829 9835 9840 9846 9854 9861 9869 9877 9887 9897 9910 9923 9936 9947 9959 9971 9984 9998 10014 10031 10049 10066 10082 10098 10112
9859 9859 9859 9859 9858 9857 9856 9855 9853 9852 9851 9850 9848 9847 9845 9843 9841 9838 9836 9834 9831 9829 9826 9823 9821 9818 9816 9813 9811 9808 9805 9804 9802 9800 9799 9798 9798 9798 9798 9799 9800 9801 9803 9805 9807 9809 9812 9815 9820 9826 9832 9837 9844 9851 9858 9866 9874 9883 9893 9906 9919 9931 9943 9955 9967 9980 9993 10008 10024 10043 10060 10076 10090 10104
9855 9855 9855 9854 9854 9853 9852 9850 9849 9848 9847 9846 9844 9843 9841 9839 9837 9834 9832 9829 9827 9825 9823 9820 9817 9815 9812 9810 9807 9804 9802 9800 9798 9797 9796 9795 9795 9795 9795 9796 9797 9798 9800 9802 9804 9806 9808 9812 9817 9822 9828 9834 9840 9847 9855 9862 9871 9880 9891 9904 9915 9925 9936 9949 9961 9974 9988 10002 10019 10038 10055 10069 10083 10096
9851 9851 9851 9850 9849 9848 9847 9846 9845 9844 9843 9842 9840 9839 9837 9835 9833 9830 9828 9825 9823 9821 9819 9816 9813 9811 9809 9806 9804 9801 9799 9797 9795 9794 9793 9792 9792 9792 9792 9793 9794 9796 9797 9799 9801 9803 9805 9809 9814 9819 9825 9830 9837 9844 9852 9860 9868 9878 9889 9899 9910 9921 9933 9944 9956 9969 9983 9997 10014 10032 10048 10062 10075 10087
9847 9847 9846 9846 9845 9844 9843 9843 9842 9840 9839 9838 9837 9835 9833 9831 9829 9826 9824 9822 9819 9817 9815 9812 9809 9807 9805 9803 9800 9798 9796 9794 9792 9791 9790 9790 9789 9789 9790 9790 9791 9793 9795 9796 9798 9800 9803 9807 9811 9817 9822 9827 9834 9841 9849 9856 9864 9873 9883 9893 9904 9916 9927 9938 9951 9965 9978 9993 10009 10026 10041 10054 10067 10079
9843 9843 9843 9842 9842 9841 9840 9839 9838 9837 9836 9834 9833 9831 9829 9827 9825 9823 9820 9818 9816 9813 9811 9809 9806 9803 9801 9799 9797 9795 9793 9791 9789 9788 9787 9787 9787 9787 9787 9788 9789 9790 9792 9794 9796 9798 9801 9804 9809 9814 9819 9825 9831 9838 9845 9852 9861 9870 9879 9887 9897 9908 9920 9932 9945 9959 9974 9989 10005 10021 10035 10047 10058 10070
9840 9840 9839 9839 9838 9838 9837 9836 9835 9834 9832 9831 9829 9827 9826 9823 9821 9819 9817 9814 9812 9810 9807 9805 9803 9800 9798 9796 9794 9792 9790 9788 9787 9786 9785 9785 9785 9785 9785 9785 9786 9788 9790 9792 9793 9796 9798 9802 9806 9811 9816 9822 9828 9834 9842 9849 9858 9866 9875 9883 9892 9903 9915 9928 9940 9953 9969 9984 10000 10015 10028 10040 10050 10061
9837 9836 9836 9836 9835 9835 9834 9833 9831 9830 9829 9827 9825 9824 9822 9820 9818 9815 9813 9811 9809 9806 9804 9801 9800 9798 9795 9793 9791 9789 9787 9785 9784 9783 9782 9782 9782 9782 9783 9783 9784 9785 9787 9789 9791 9793 9796 9800 9804 9808 9813 9818 9824 9831 9839 9846 9853 9860 9869 9878 9888 9898 9909 9921 9934 9947 9962 9977 9993 10008 10021 10031 10041 10051
9834 9833 9833 9833 9832 9832 9831 9829 9828 9826 9825 9823 9822 9820 9818 9816 9814 9812 9810 9807 9805 9803 9800 9798 9796 9794 9792 9791 9789 9787 9785 9783 9781 9780 9780 9779 9779 9780 9780 9781 9781 9783 9785 9787 9789 9791 9794 9797 9801 9805 9810 9815 9821 9827 9835 9842 9849 9855 9863 9872 9882 9892 9902 9913 9925 9939 9953 9968 9984 9999 10011 10022 10031 10041
9831 9831 9831 9830 9829 9828 9827 9826 9824 9823 9821 9820 9818 9816 9814 9812 9810 9808 9806 9804 9802 9799 9797 9795 9793 9791 9789 9787 9785 9784 9782 9780 9779 9778 9777 9777 9777 9777 9778 9779 9779 9780 9782 9784 9786 9789 9791 9795 9798 9803 9807 9813 9818 9824 9831 9838 9845 9852 9860 9868 9878 9889 9898 9908 9919 9930 9943 9956 9971 9986 10000 10011 10021 10030
9829 9829 9828 9827 9827 9825 9824 9823 9821 9820 9818 9816 9814 9812 9810 9808 9806 9805 9803 9801 9799 9797 9794 9792 9790 9788 9786 9784 9782 9781 9779 9778 9776 9775 9775 9775 9775 9775 9776 9776 9777 9778 9780 9782 9784 9786 9789 9792 9796 9800 9805 9810 9815 9821 9827 9834 9842 9850 9858 9866 9874 9883 9893 9903 9912 9923 9934 9946 9959 9973 9986 9997 10008 10018
9827 9826 9826 9825 9824 9822 9821 9820 9818 9817 9815 9813 9811 9809 9807 9805 9803 9801 9799 9797 9795 9793 9791 9789 9787 9785 9783 9781 9779 9778 9777 9776 9774 9773 9772 9772 9772 9773 9773 9774 9775 9776 9777 9779 9782 9784 9786 9789 9793 9797 9802 9807 9812 9817 9824 9831 9838 9845 9853 9861 9869 9878 9887 9896 9906 9917 9928 9939 9950 9961 9973 9985 9996 10008
9825 9824 9823 9822 9821 9819 9818 9816 9815 9813 9812 9810 9808 9806 9804 9802 9800 9798 9796 9794 9792 9790 9788 9786 9784 9782 9780 9778 9776 9775 9773 9773 9772 9771 9770 9770 9770 9770 9771 9772 9772 9773 9775 9776 9779 9781 9784 9786 9790 9794 9798 9803 9808 9813 9819 9826 9833 9840 9847 9855 9864 9873 9882 9890 9900 9910 9921 9931 9941 9952 9964 9975 9987 9998
9822 9822 9820 9819 9818 9816 9815 9813 9812 9810 9808 9807 9805 9803 9800 9798 9796 9795 9793 9791 9789 9787 9785 9783 9781 9779 9777 9775 9774 9772 9770 9769 9769 9768 9767 9767 9767 9768 9768 9769 9770 9771 9772 9774 9776 9778 9781 9784 9787 9790 9795 9799 9804 9809 9815 9821 9828 9835 9842 9850 9859 9867 9876 9886 9895 9903 9913 9923 9933 9944 9955 9967 9978 9989
9820 9819 9818 9816 9815 9814 9812 9810 9809 9807 9806 9804 9802 9800 9798 9795 9793 9791 9790 9788 9786 9784 9782 9780 9778 9776 9774 9772 9771 9769 9767 9766 9766 9765 9765 9764 9764 9764 9765 9766 9767 9768 9769 9771 9773 9775 9778 9780 9784 9787 9791 9795 9800 9806 9811 9816 9823 9830 9837 9845 9853 9862 9871 9880 9888 9897 9906 9915 9925 9935 9946 9958 9968 9979